Preview of NWS' New Version of Forecast
This preview is not operational and should not be used for support decisions.

Regional Weather Roundup (RWR)

Issued by Gray - Portland, ME (GYX)

                            
000
ASUS41 KGYX 211910
RWRGYX
WEATHER ROUNDUP FOR MAINE AND NEW HAMPSHIRE
NATIONAL WEATHER SERVICE GRAY ME
300 PM EDT WED AUG 21 2019

MEZ002-005-006-010-012-015-018-020-021-024-026-027-029-212000-
MAINE
  
CITY           SKY/WX    TMP DP  RH WIND       PRES   REMARKS
PORTLAND       CLOUDY    71  68  90 CALM      29.93F                  
SANFORD        PTSUNNY   72  70  93 CALM      29.92F                  
BAR HARBOR     LGT RAIN  67  66  97 S10       29.96S                  
WISCASSET      HVY RAIN  69  68  96 SW3       29.97S VSB 3/4          
ROCKLAND       PTSUNNY   71  69  93 SW8       29.95S                  
FRYEBURG       LGT RAIN  68  66  93 SE3       29.93F                  
LEWISTONAUBURN LGT RAIN  69  68  96 S3        29.94F                  
AUGUSTA        LGT RAIN  70  69  97 S8        29.94F                  
WATERVILLE     LGT RAIN  71  69  93 S6        29.90F                  
BANGOR         LGT RAIN  71  67  87 S13       29.92S                  
GREENVILLE     NOT AVBL                                               
MILLINOCKET    FAIR      77  64  64 VRB3      29.91S                  
HOULTON        FAIR      77  61  57 SW8       29.88F                  
PRESQUE ISLE     N/A     80  60  50 S10       29.87S                  
FRENCHVILLE    FAIR      79  57  46 SW10G20   29.86F                  
CARIBOU        PTSUNNY   82  57  42 S13       29.84F                  
$$

NHZ002-005-008-009-011-012-014-212000-
NEW HAMPSHIRE
  
CITY           SKY/WX    TMP DP  RH WIND       PRES   REMARKS
ROCHESTER      LGT RAIN  72  69  90 CALM      29.91F                  
NASHUA         CLOUDY    73  73 100 CALM      29.89F                  
MANCHESTER     PTSUNNY   76  70  82 SW5       29.88F                  
CONCORD        LGT RAIN  72  69  90 CALM      29.90F                  
LACONIA        LGT RAIN  66  66 100 NE3       29.92F                  
PLYMOUTH       LGT RAIN  65  64  96 CALM      29.91F                  
BERLIN         NOT AVBL                                               
WHITEFIELD     LGT RAIN  71  66  84 CALM      29.91F                  
JAFFREY        FAIR      78  71  79 S3        29.92F                  
KEENE          PTSUNNY   78  72  81 CALM      29.88F                  
LEBANON        CLOUDY    71  66  84 N3        29.88F                  
MT WASHINGTON  LGT RAIN  54  54 100 SW32G40     N/A  VSB 3/16         
$$

VTZ005-007-008-212000-
VERMONT
  
CITY           SKY/WX    TMP DP  RH WIND       PRES   REMARKS
ST JOHNSBURY     N/A     68  66  93 MISG      29.88F                  
MONTPELIER     RAIN      68  65  90 S9        29.93F                  
BURLINGTON     LGT RAIN  72  68  87 SW3       29.86S FOG              
$$

MAZ007-012-024-CTZ003-RIZ002-NYZ038-NYZ072-212000-
SOUTHERN NEW ENGLAND AND NY
  
CITY           SKY/WX    TMP DP  RH WIND       PRES   REMARKS
BOSTON         LGT RAIN  83  69  62 S15       29.87F                  
WORCESTER      TSTM      75  73  93 S10       29.92F                  
NANTUCKET      FAIR      76  70  82 S15       29.96F                  
PROVIDENCE     CLOUDY    82  73  74 S13       29.91F                  
HARTFORD       CLOUDY    75  72  90 S10       29.88F                  
ALBANY         FAIR      82  72  71 S16       29.83F                  
NEW YORK CITY  PTSUNNY   89  68  49 SW13      29.86F HX  93           
$$

ANZ081-ANZ082-ANZ150-NHZ014-MEZ023>029-212000-
COASTAL MARINE OBSERVATIONS
  
STATION/POSITION TIME  TEMP    WIND        PRES    WAVE
                       AIR SEA DIR/SP/G            HT/PER
                 (UTC) (F)     (DEG/KT/KT) (MB)    (FT/S)
MATINICUS ROCK   1850   64                 1014.0F
ISLE OF SHOALS   1800   71     150/ 14/ 15 1012.4F
JEFFREYS LEDGE   1838      67                N/A     2/10
CASHES LEDGE BUO 1850   67 64  170/ 12/ 12 1014.1F   2/ 6
GEORGES BANK BUO 1850   74 67  160/  6/  8 1017.1F   3/10
$$

.............KEY..............
   WCI - WIND CHILL
   TC  - TEMPERATURE IN CELSIUS
   VSB - VISIBILITY IN MILES
   HX  - HEAT INDEX
   FAIR- INDICATES FEW OR NO CLOUDS BELOW 12,000 FT, WITH NO 
         SIGNIFICANT WEATHER AND/OR OBSTRUCTIONS TO VISIBILITY.